Location: Pine Mountain Observatory
(43.7910°N, 120.9377°W)
Time: 23:01:44
(UTC-07:00)

Courier 1B Rocket - Visible Passes

Search period start: 19 October 2019 00:00
Search period end: 29 October 2019 00:00
Orbit: 920 x 1202 km, 28.2° (Epoch: 19 October)

Date Brightness Start Highest point End Pass type
(mag) Time Alt. Az. Time Alt. Az. Time Alt. Az.
19 Oct 7.2 04:19:22 12° SSE 04:19:22 12° SSE 04:20:48 10° SE visible
19 Oct 6.8 06:06:27 10° SW 06:10:40 19° S 06:14:59 10° SE visible
20 Oct 6.7 05:08:36 16° S 05:10:00 17° S 05:13:57 10° SE visible
20 Oct 6.9 06:58:12 10° SW 07:02:20 18° S 07:06:34 10° SE visible
21 Oct 7.1 04:11:27 13° SE 04:11:27 13° SE 04:12:46 10° SE visible
21 Oct 6.7 05:57:50 11° SW 06:01:39 19° S 06:05:54 10° SE visible
22 Oct 6.6 05:00:40 18° S 05:00:59 19° S 05:05:08 10° SE visible
22 Oct 6.9 06:49:40 10° SW 06:53:18 16° S 06:57:00 10° SSE visible
23 Oct 7.2 04:03:30 12° SE 04:03:30 12° SE 04:04:15 10° SE visible
23 Oct 6.7 05:49:52 13° SW 05:52:38 18° S 05:56:39 10° SSE visible
24 Oct 6.6 04:52:42 18° S 04:52:42 18° S 04:56:08 10° SE visible
24 Oct 6.9 06:41:32 10° SW 06:44:15 13° SSW 06:46:58 10° S visible
25 Oct 6.7 05:41:55 14° SSW 05:43:36 16° SSW 05:47:07 10° SSE visible
26 Oct 6.8 04:44:47 16° SSE 04:44:47 16° SSE 04:46:55 10° SSE visible
27 Oct 6.8 05:34:02 13° SSW 05:34:33 13° SSW 05:37:08 10° S visible
28 Oct 7.2 04:36:55 11° SSE 04:36:55 11° SSE 04:37:27 10° SSE visible
